DW1384 Weather Reports


time (UTC)temp
C
wind
direction
speed
KPH
gust
KPH
rain 1hr
cm
rain 24hr
cm
rain mn
cm
humidity
%
barometer
mb
20260831155259 16 265 0.0 0.0 0.00 0.00 0.00 83 1013.7
20260831154752 16 174 0.0 0.0 0.00 0.00 0.00 83 1013.6
20260831154247 16 149 0.0 0.0 0.00 0.00 0.00 84 1013.4
20260831153740 16 161 0.0 0.0 0.00 0.00 0.00 84 1013.4
20260831153453 16 180 0.0 0.0 0.00 0.00 0.00 84 1013.4
20260831152729 16 283 0.0 0.0 0.00 0.00 0.00 84 1013.4
20260831152222 16 243 0.0 0.0 0.00 0.00 0.00 84 1013.3
20260831151717 16 284 0.0 0.0 0.00 0.00 0.00 84 1013.3
20260831151210 16 226 0.0 0.0 0.00 0.00 0.00 84 1013.2
20260831151149 16 222 0.0 0.0 0.00 0.00 0.00 85 1013.3
20260831150159 16 224 0.0 0.0 0.00 0.00 0.00 84 1013.3
20260831145652 16 195 0.0 0.0 0.00 0.00 0.00 84 1012.9
20260831145147 16 155 0.0 0.0 0.00 0.00 0.00 84 1013.0
20260831144640 16 151 0.0 0.0 0.00 0.00 0.00 84 1013.0
20260831144136 16 159 0.0 0.0 0.00 0.00 0.00 84 1013.1
20260831143628 16 215 0.0 0.0 0.00 0.00 0.00 83 1013.0
20260831143118 17 144 0.0 0.0 0.00 0.00 0.00 83 1012.7
20260831142612 17 183 0.0 0.0 0.00 0.00 0.00 83 1012.7
20260831142335 17 167 0.0 0.0 0.00 0.00 0.00 82 1012.4
20260831141601 17 143 0.0 0.0 0.00 0.00 0.00 82 1012.3
20260831141055 17 211 0.0 0.0 0.00 0.00 0.00 81 1012.4
20260831140555 17 267 0.0 0.0 0.00 0.00 0.00 79 1012.1
20260831140106 18 182 0.0 0.0 0.00 0.00 0.00 77 1012.3
20260831135811 19 230 0.0 0.0 0.00 0.00 0.00 72 1012.3
20260831135536 19 124 0.0 0.0 0.00 0.00 0.00 71 1011.9
20260831134551 20 171 0.0 0.0 0.00 0.00 0.00 71 1011.8
20260831134049 20 92 0.0 0.0 0.00 0.00 0.00 70 1011.7
20260831133546 20 249 0.0 0.0 0.00 0.00 0.00 69 1011.7
20260831133046 20 164 0.0 0.0 0.00 0.00 0.00 68 1011.8
20260831132547 21 198 0.0 0.0 0.00 0.00 0.00 70 1011.9
20260831132045 21 184 0.0 0.0 0.00 0.00 0.00 70 1011.5
20260831131807 21 280 0.0 0.0 0.00 0.00 0.00 71 1011.5
20260831131045 20 155 0.0 0.0 0.00 0.00 0.00 71 1011.6
20260831130545 20 204 0.0 0.0 0.00 0.00 0.00 73 1011.5
20260831130059 20 163 0.0 0.0 0.00 0.00 0.00 75 1011.8
20260831125810 20 242 0.0 0.0 0.00 0.00 0.00 74 1011.9
20260831125045 19 163 0.0 0.0 0.00 0.00 0.00 75 1011.9
20260831124543 19 166 0.0 0.0 0.00 0.00 0.00 76 1012.0
20260831124042 18 178 0.0 0.0 0.00 0.00 0.00 76 1012.0
20260831123536 18 146 0.0 0.0 0.00 0.00 0.00 76 1012.1
20260831123033 18 128 0.0 0.0 0.00 0.00 0.00 76 1012.2
20260831122748 18 92 0.0 0.0 0.00 0.00 0.00 77 1012.3
20260831122018 18 150 0.0 0.0 0.00 0.00 0.00 75 1012.3
20260831121730 19 48 0.0 0.0 0.00 0.00 0.00 72 1012.4
20260831121007 19 217 0.0 0.0 0.00 0.00 0.00 71 1012.2
20260831120500 19 152 0.0 0.0 0.00 0.00 0.00 69 1012.1
20260831115954 20 178 0.0 0.0 0.00 0.00 0.00 70 1012.1
20260831115718 20 190 0.0 0.0 0.00 0.00 0.00 70 1011.9
20260831114942 20 277 0.0 0.0 0.00 0.00 0.00 71 1011.9
20260831114437 19 319 0.0 0.0 0.00 0.00 0.00 72 1011.9
20260831113930 19 230 0.0 0.0 0.00 0.00 0.00 72 1011.9
20260831113429 19 195 0.0 0.0 0.00 0.00 0.00 71 1011.9
20260831112929 20 267 0.0 0.0 0.00 0.00 0.00 69 1011.9
20260831112426 20 168 0.0 0.0 0.00 0.00 0.00 68 1011.7
20260831111924 20 210 0.0 0.0 0.00 0.00 0.00 69 1011.9
20260831111427 20 330 0.0 0.0 0.00 0.00 0.00 70 1011.9
20260831110925 20 256 0.0 0.0 0.00 0.00 0.00 71 1011.9
20260831110423 19 157 0.0 0.0 0.00 0.00 0.00 71 1011.8
20260831105923 19 212 0.0 0.0 0.00 0.00 0.00 72 1011.9
20260831105423 20 264 0.0 0.0 0.00 0.00 0.00 71 1011.8
20260831105153 20 205 0.0 0.0 0.00 0.00 0.00 72 1011.9
20260831104421 20 70 0.0 0.0 0.00 0.00 0.00 73 1012.0
20260831103921 19 137 0.0 0.0 0.00 0.00 0.00 74 1011.9
20260831103420 19 201 0.0 0.0 0.00 0.00 0.00 73 1012.0
20260831102921 19 170 0.0 0.0 0.00 0.00 0.00 73 1011.9
20260831102421 19 232 0.0 0.0 0.00 0.00 0.00 74 1011.9
20260831101921 19 107 0.0 0.0 0.00 0.00 0.00 73 1011.9
20260831101419 19 188 0.0 0.0 0.00 0.00 0.00 73 1011.9
20260831100916 20 235 0.0 0.0 0.00 0.00 0.00 74 1012.0
20260831100645 20 180 0.0 0.0 0.00 0.00 0.00 75 1012.0
20260831095917 19 253 0.0 0.0 0.00 0.00 0.00 75 1012.1
20260831095417 18 257 0.0 0.0 0.00 0.00 0.00 76 1012.1
20260831094917 18 209 0.0 0.0 0.00 0.00 0.00 76 1012.2
20260831094901 18 268 0.0 0.0 0.00 0.00 0.00 78 1012.2
20260831093915 18 217 0.0 0.0 0.00 0.00 0.00 79 1012.2
20260831093634 18 208 0.0 0.0 0.00 0.00 0.00 79 1012.2
20260831092915 18 165 0.0 0.0 0.00 0.00 0.00 79 1012.2
20260831092642 18 130 0.0 0.0 0.00 0.00 0.00 78 1012.1
20260831091915 18 153 0.0 0.0 0.00 0.00 0.00 78 1012.1
20260831091414 18 293 0.0 0.0 0.00 0.00 0.00 77 1012.0
20260831090914 18 238 0.0 0.0 0.00 0.00 0.00 76 1012.1
20260831090415 18 188 0.0 0.0 0.00 0.00 0.00 78 1012.0
20260831085914 18 174 0.0 0.0 0.00 0.00 0.00 78 1011.9
20260831085415 18 190 0.0 0.0 0.00 0.00 0.00 78 1012.0
20260831084915 18 194 0.0 0.0 0.00 0.00 0.00 79 1012.0
20260831084638 18 181 0.0 0.0 0.00 0.00 0.00 79 1012.1
20260831083915 18 189 0.0 0.0 0.00 0.00 0.00 79 1012.2
20260831083416 18 172 0.0 0.0 0.00 0.00 0.00 80 1012.0
20260831082915 18 286 0.0 0.0 0.00 0.00 0.00 80 1012.1
20260831082410 18 202 0.0 0.0 0.00 0.00 0.00 80 1012.0
20260831081909 18 166 0.0 0.0 0.00 0.00 0.00 81 1012.0
20260831081409 18 224 0.0 0.0 0.00 0.00 0.00 81 1012.0
20260831080909 18 190 0.0 0.0 0.00 0.00 0.00 81 1012.0
20260831080409 17 153 0.0 0.0 0.00 0.00 0.00 82 1011.9
20260831075909 17 116 0.0 0.0 0.00 0.00 0.00 82 1011.9
20260831075409 17 200 0.0 0.0 0.00 0.00 0.00 83 1011.9
20260831074909 17 143 0.0 0.0 0.00 0.00 0.00 83 1011.9
20260831074407 17 84 0.0 0.0 0.00 0.00 0.00 84 1011.9
20260831073907 17 257 0.0 0.0 0.00 0.00 0.00 84 1012.0
20260831073404 17 221 0.0 0.0 0.00 0.00 0.00 85 1011.9
20260831072905 17 193 0.0 0.0 0.00 0.00 0.00 85 1012.0
20260831072405 17 190 0.0 0.0 0.00 0.00 0.00 86 1011.9
20260831072132 17 116 0.0 0.0 0.00 0.00 0.00 87 1011.9
20260831071404 17 122 0.0 0.0 0.00 0.00 0.00 87 1012.0
20260831070905 17 160 0.0 0.0 0.00 0.00 0.00 87 1011.9
20260831070403 17 132 0.0 0.0 0.00 0.00 0.00 87 1012.0
20260831065902 17 133 0.0 0.0 0.00 0.00 0.00 87 1011.9
20260831065402 17 103 0.0 0.0 0.00 0.00 0.00 88 1011.9
20260831064904 17 103 0.0 0.0 0.00 0.00 0.00 88 1011.9
20260831064403 16 103 0.0 0.0 0.00 0.00 0.00 88 1011.9
20260831063901 16 103 0.0 0.0 0.00 0.00 0.00 88 1011.9
20260831063838 16 100 0.0 0.0 0.00 0.00 0.00 89 1012.0
20260831063123 16 166 0.0 0.0 0.00 0.00 0.00 88 1012.0
20260831062358 16 124 0.0 0.0 0.00 0.00 0.00 89 1012.0
20260831061905 16 139 0.0 0.0 0.00 0.00 0.00 89 1011.9
20260831061352 16 140 0.0 0.0 0.00 0.00 0.00 89 1011.9
20260831060852 16 141 0.0 0.0 0.00 0.00 0.00 89 1011.9
20260831060351 16 138 0.0 0.0 0.00 0.00 0.00 89 1011.9
20260831055848 16 137 0.0 0.0 0.00 0.00 0.00 90 1011.9
20260831055348 16 137 0.0 0.0 0.00 0.00 0.00 90 1011.9
20260831054847 16 134 0.0 0.0 0.00 0.00 0.00 90 1011.9
20260831054346 16 144 0.0 0.0 0.00 0.00 0.00 90 1011.9
20260831053845 15 144 0.0 0.0 0.00 0.00 0.00 90 1011.9
20260831053358 15 138 0.0 0.0 0.00 0.00 0.00 90 1011.8
20260831052846 15 154 0.0 0.0 0.00 0.00 0.00 90 1011.8
20260831052354 15 128 0.0 0.0 0.00 0.00 0.00 90 1011.7
20260831051840 15 120 0.0 0.0 0.00 0.00 0.00 90 1011.8
20260831051341 15 167 0.0 0.0 0.00 0.00 0.00 90 1011.7
20260831050841 15 156 0.0 0.0 0.00 0.00 0.00 90 1011.7
20260831050341 15 158 0.0 0.0 0.00 0.00 0.00 90 1011.7
20260831045841 15 134 0.0 0.0 0.00 0.00 0.00 90 1011.7
20260831045602 15 128 0.0 0.0 0.00 0.00 0.00 90 1011.7
20260831045057 15 126 0.0 0.0 0.00 0.00 0.00 90 1011.6
20260831044341 15 208 0.0 0.0 0.00 0.00 0.00 90 1011.6
20260831043836 15 230 0.0 0.0 0.00 0.00 0.00 90 1011.6
20260831043336 15 230 0.0 0.0 0.00 0.00 0.00 90 1011.5
20260831042836 15 241 0.0 0.0 0.00 0.00 0.00 89 1011.6
20260831042336 15 242 0.0 0.0 0.00 0.00 0.00 90 1011.5
20260831041838 15 242 0.0 0.0 0.00 0.00 0.00 90 1011.4
20260831041350 15 242 0.0 0.0 0.00 0.00 0.00 90 1011.4
20260831040837 15 242 0.0 0.0 0.00 0.00 0.00 90 1011.3
20260831040337 15 242 0.0 0.0 0.00 0.00 0.00 90 1011.4
20260831035836 15 116 0.0 0.0 0.00 0.00 0.00 90 1011.4
20260831035332 15 128 0.0 0.0 0.00 0.00 0.00 90 1011.4
20260831034832 15 128 0.0 0.0 0.00 0.00 0.00 90 1011.3
20260831034333 14 128 0.0 0.0 0.00 0.00 0.00 90 1011.4
20260831033834 14 128 0.0 0.0 0.00 0.00 0.00 89 1011.3
20260831033332 14 128 0.0 0.0 0.00 0.00 0.00 90 1011.4
20260831032832 14 128 0.0 0.0 0.00 0.00 0.00 90 1011.5
20260831032332 14 128 0.0 0.0 0.00 0.00 0.00 89 1011.4
20260831032048 13 128 0.0 0.0 0.00 0.00 0.00 89 1011.4
20260831031332 13 128 0.0 0.0 0.00 0.00 0.00 89 1011.3
20260831030829 13 128 0.0 0.0 0.00 0.00 0.00 89 1011.1
20260831030328 13 126 0.0 0.0 0.00 0.00 0.00 89 1011.2
20260831025829 13 134 0.0 0.0 0.00 0.00 0.00 89 1011.3
20260831025550 13 150 0.0 0.0 0.00 0.00 0.00 89 1011.5
20260831024829 13 126 0.0 0.0 0.00 0.00 0.00 89 1011.5
20260831024331 13 126 0.0 0.0 0.00 0.00 0.00 89 1011.6
20260831023831 13 114 0.0 0.0 0.00 0.00 0.00 89 1011.6
20260831023328 13 97 0.0 0.0 0.00 0.00 0.00 89 1011.6
20260831022828 13 96 0.0 0.0 0.00 0.00 0.00 89 1011.5
20260831022544 13 96 0.0 0.0 0.00 0.00 0.00 89 1011.4
20260831021838 13 96 0.0 0.0 0.00 0.00 0.00 89 1011.4
20260831021324 13 96 0.0 0.0 0.00 0.00 0.00 89 1011.4
20260831020824 13 96 0.0 0.0 0.00 0.00 0.00 89 1011.4
20260831020324 13 96 0.0 0.0 0.00 0.00 0.00 89 1011.3
20260831015824 13 96 0.0 0.0 0.00 0.00 0.00 89 1011.3
20260831015324 13 96 0.0 0.0 0.00 0.00 0.00 89 1011.3
20260831014824 13 96 0.0 0.0 0.00 0.00 0.00 89 1011.4
20260831014325 13 96 0.0 0.0 0.00 0.00 0.00 89 1011.4
20260831013820 13 96 0.0 0.0 0.00 0.00 0.00 89 1011.5
20260831013320 13 96 0.0 0.0 0.00 0.00 0.00 89 1011.6
20260831012821 13 96 0.0 0.0 0.00 0.00 0.00 89 1011.5
20260831012540 13 96 0.0 0.0 0.00 0.00 0.00 89 1011.5
20260831011820 13 96 0.0 0.0 0.00 0.00 0.00 89 1011.5
20260831011320 13 96 0.0 0.0 0.00 0.00 0.00 89 1011.6
20260831010821 13 96 0.0 0.0 0.00 0.00 0.00 89 1011.5
20260831010320 13 96 0.0 0.0 0.00 0.00 0.00 88 1011.6
20260831005820 13 96 0.0 0.0 0.00 0.00 0.00 88 1011.7
20260831005808 13 96 0.0 0.0 0.00 0.00 0.00 88 1011.9
20260831004816 13 96 0.0 0.0 0.00 0.00 0.00 88 1011.9
20260831004318 13 96 0.0 0.0 0.00 0.00 0.00 88 1011.9
20260831003817 13 96 0.0 0.0 0.00 0.00 0.00 88 1011.9
20260831003317 13 96 0.0 0.0 0.00 0.00 0.00 88 1011.9
20260831003251 13 96 0.0 0.0 0.00 0.00 0.00 88 1011.9
20260831002316 13 96 0.0 0.0 0.00 0.00 0.00 88 1011.9
20260831001816 13 96 0.0 0.0 0.00 0.00 0.00 88 1011.9
20260831001329 13 96 0.0 0.0 0.00 0.00 0.00 88 1012.0
20260831000813 13 96 0.0 0.0 0.00 0.00 0.00 88 1012.0
20260831000312 13 96 0.0 0.0 0.00 0.00 0.00 88 1012.0
20260830235813 13 96 0.0 0.0 0.00 0.00 0.00 88 1011.9
20260830235313 13 95 0.0 0.0 0.00 0.00 0.00 88 1011.9
20260830235042 13 96 0.0 0.0 0.00 0.00 0.00 88 1012.0
20260830234313 13 95 0.0 0.0 0.00 0.00 0.00 88 1012.1
20260830233812 13 95 0.0 0.0 0.00 0.00 0.00 88 1012.0
20260830233312 13 96 0.0 0.0 0.00 0.00 0.00 88 1012.0
20260830232812 13 95 0.0 0.0 0.00 0.00 0.00 88 1011.9
20260830232321 14 95 0.0 0.0 0.00 0.00 0.00 88 1012.0
20260830231809 14 95 0.0 0.0 0.00 0.00 0.00 88 1012.1
20260830231530 14 95 0.0 0.0 0.00 0.00 0.00 88 1012.1
20260830230808 14 96 0.0 0.0 0.00 0.00 0.00 88 1012.2
20260830230308 14 96 0.0 0.0 0.00 0.00 0.00 88 1012.2
20260830225809 14 96 0.0 0.0 0.00 0.00 0.00 88 1012.2
20260830225308 14 96 0.0 0.0 0.00 0.00 0.00 88 1012.2
20260830224811 14 96 0.0 0.0 0.00 0.00 0.00 87 1012.2
20260830224309 14 96 0.0 0.0 0.00 0.00 0.00 87 1012.4
20260830223808 14 96 0.0 0.0 0.00 0.00 0.00 88 1012.4
20260830223308 14 96 0.0 0.0 0.00 0.00 0.00 88 1012.5
20260830222809 14 96 0.0 0.0 0.00 0.00 0.00 87 1012.4
20260830222528 14 96 0.0 0.0 0.00 0.00 0.00 87 1012.5
20260830221809 14 96 0.0 0.0 0.00 0.00 0.00 87 1012.4
20260830221308 14 96 0.0 0.0 0.00 0.00 0.00 87 1012.4
20260830220808 14 96 0.0 0.0 0.00 0.00 0.00 87 1012.4
20260830220306 14 96 0.0 0.0 0.00 0.00 0.00 87 1012.5
20260830215805 14 96 0.0 0.0 0.00 0.00 0.00 87 1012.5
20260830215305 14 96 0.0 0.0 0.00 0.00 0.00 87 1012.7
20260830215026 14 96 0.0 0.0 0.00 0.00 0.00 87 1012.7
20260830214518 14 96 0.0 0.0 0.00 0.00 0.00 87 1012.7
20260830213801 14 96 0.0 0.0 0.00 0.00 0.00 87 1012.8
20260830213303 14 96 0.0 0.0 0.00 0.00 0.00 87 1012.8
20260830212801 14 96 0.0 0.0 0.00 0.00 0.00 87 1012.8
20260830212305 14 96 0.0 0.0 0.00 0.00 0.00 87 1012.8
20260830211802 14 96 0.0 0.0 0.00 0.00 0.00 87 1013.0
20260830211302 14 96 0.0 0.0 0.00 0.00 0.00 87 1013.0
20260830210803 15 96 0.0 0.0 0.00 0.00 0.00 87 1013.0
20260830210258 14 96 0.0 0.0 0.00 0.00 0.00 86 1013.0
20260830205757 14 96 0.0 0.0 0.00 0.00 0.00 86 1013.0
20260830205300 15 96 0.0 0.0 0.00 0.00 0.00 86 1013.0
20260830204758 15 96 0.0 0.0 0.00 0.00 0.00 86 1013.0
20260830204257 15 96 0.0 0.0 0.00 0.00 0.00 86 1013.0
20260830204020 15 96 0.0 0.0 0.00 0.00 0.00 86 1013.1
20260830203520 15 96 0.0 0.0 0.00 0.00 0.00 86 1012.9
20260830202758 15 96 0.0 0.0 0.00 0.00 0.00 86 1013.0
20260830202257 15 96 0.0 0.0 0.00 0.00 0.00 86 1012.9
20260830202016 15 95 0.0 0.0 0.00 0.00 0.00 86 1013.0
20260830201739 15 95 0.0 0.0 0.00 0.00 0.00 86 1013.0
20260830200807 15 91 0.0 0.0 0.00 0.00 0.00 85 1013.1
20260830200253 15 91 0.0 0.0 0.00 0.00 0.00 85 1013.2
20260830195753 15 91 0.0 0.0 0.00 0.00 0.00 85 1013.1
20260830195513 15 91 0.0 0.0 0.00 0.00 0.00 85 1013.1
20260830195017 15 91 0.0 0.0 0.00 0.00 0.00 85 1013.1
20260830194254 15 91 0.0 0.0 0.00 0.00 0.00 85 1013.1
20260830193753 15 91 0.0 0.0 0.00 0.00 0.00 85 1013.1
20260830193253 16 106 0.0 0.0 0.00 0.00 0.00 85 1013.1
20260830192749 16 106 0.0 0.0 0.00 0.00 0.00 85 1013.2
20260830192512 16 107 0.0 0.0 0.00 0.00 0.00 84 1013.1
20260830191750 16 106 0.0 0.0 0.00 0.00 0.00 84 1013.2
20260830191250 16 107 0.0 0.0 0.00 0.00 0.00 84 1013.2
20260830190749 16 107 0.0 0.0 0.00 0.00 0.00 84 1013.2
20260830190524 16 107 0.0 0.0 0.00 0.00 0.00 84 1013.2
20260830185750 16 104 0.0 0.0 0.00 0.00 0.00 83 1013.2
20260830185250 16 104 0.0 0.0 0.00 0.00 0.00 83 1013.2
20260830184749 17 104 0.0 0.0 0.00 0.00 0.00 83 1013.2
20260830184248 17 104 0.0 0.0 0.00 0.00 0.00 83 1013.1
20260830183746 17 104 0.0 0.0 0.00 0.00 0.00 82 1013.2
20260830183245 17 104 0.0 0.0 0.00 0.00 0.00 82 1013.1
20260830183005 17 104 0.0 0.0 0.00 0.00 0.00 81 1013.0
20260830182245 17 186 0.0 0.0 0.00 0.00 0.00 81 1013.1
20260830181746 18 197 0.0 0.0 0.00 0.00 0.00 80 1013.0
20260830181245 18 201 0.0 0.0 0.00 0.00 0.00 79 1013.0
20260830181004 18 204 0.0 0.0 0.00 0.00 0.00 79 1012.9
20260830180509 18 251 0.0 0.0 0.00 0.00 0.00 79 1012.9
20260830175741 19 251 0.0 0.0 0.00 0.00 0.00 78 1012.9
20260830175242 19 251 0.0 0.0 0.00 0.00 0.00 76 1012.8
20260830174742 19 251 0.0 0.0 0.00 0.00 0.00 75 1012.9
20260830174241 20 251 0.0 0.0 0.00 0.00 0.00 75 1012.9
20260830173741 20 251 0.0 0.0 0.00 0.00 0.00 74 1012.9
20260830173242 20 251 0.0 0.0 0.00 0.00 0.00 73 1012.9
20260830172741 20 251 0.0 0.0 0.00 0.00 0.00 72 1013.0
20260830172243 21 251 0.0 0.0 0.00 0.00 0.00 67 1013.0
20260830171742 21 251 0.0 0.0 0.00 0.00 0.00 70 1012.9
20260830171237 21 251 0.0 0.0 0.00 0.00 0.00 66 1013.0
20260830170738 21 251 0.0 0.0 0.00 0.00 0.00 67 1013.0
20260830170237 21 251 0.0 0.0 0.00 0.00 0.00 64 1013.0
20260830165737 21 251 0.0 0.0 0.00 0.00 0.00 65 1012.9
20260830165238 21 269 0.0 0.0 0.00 0.00 0.00 62 1012.9
20260830164738 21 234 0.0 0.0 0.00 0.00 0.00 65 1012.9
20260830164237 21 194 0.0 0.0 0.00 0.00 0.00 63 1012.9
20260830163738 21 195 0.0 0.0 0.00 0.00 0.00 62 1012.9
20260830163237 21 195 0.0 0.0 0.00 0.00 0.00 62 1012.9
20260830162734 21 267 0.0 0.0 0.00 0.00 0.00 62 1012.8
20260830162233 21 222 0.0 0.0 0.00 0.00 0.00 62 1012.9
20260830161735 21 286 0.0 0.0 0.00 0.00 0.00 62 1012.9
20260830161234 21 166 0.0 0.0 0.00 0.00 0.00 62 1012.9
20260830160733 21 197 0.0 0.0 0.00 0.00 0.00 62 1012.9
20260830160455 22 203 0.0 0.0 0.00 0.00 0.00 63 1012.9